Miami, FL

11:16 PM EST on February 11, 2016 (GMT -0500)
Miami International

Weather History for KMIA - July, 2013

Change the Weather History Date:

Saturday, July 6, 2013

  Actual Average Record
Temperature  
Mean Temperature 84 °F 84 °F  
Max Temperature 89 °F 91 °F 95 °F (2009)
Min Temperature 78 °F 77 °F 70 °F (1922)
Degree Days  
Heating Degree Days 0 0  
Month to date heating degree days 0 0  
Since 1 June heating degree days 0 0  
Since 1 July heating degree days 0 0  
Cooling Degree Days 19 19  
Month to date cooling degree days 105 113  
Year to date cooling degree days 2098 2001  
Since 1 June cooling degree days 653 645  
Growing Degree Days 34 (Base 50)    
Moisture  
Dew Point 73 °F    
Average Humidity 70    
Maximum Humidity 85    
Minimum Humidity 55    
Precipitation  
Precipitation 0.24 in 0.24 in 1.84 in (1959)
Month to date precipitation 1.55 1.55  
Year to date precipitation 27.10 26.57  
Snow  
Snow 0.00 in - - ()
Month to date snowfall 0.0  
Since 1 June snowfall 0.0  
Since 1 July snowfall 0.0  
Snow Depth 0.00 in    
Sea Level Pressure  
Sea Level Pressure 30.08 in    
Wind  
Wind Speed 12 mph (ESE)    
Max Wind Speed 20 mph    
Max Gust Speed 26 mph    
Visibility 10 miles    
Events Rain    
T = Trace of Precipitation, MM = Missing Value Source: NWS Daily Summary

Daily Weather History Graph

Daily Weather History Graph

Search for Another Location

Airport or City:

Trip Planner

Search our weather history database for the weather conditions in past years. The results will help you decide how hot, cold, wet, or windy it might be!

Date:

Astronomy

Jul. 06, 2013 Rise Set
Actual Time 6:35 AM EDT 8:16 PM EDT
Civil Twilight 6:09 AM EDT 8:42 PM EDT
Nautical Twilight 5:38 AM EDT 9:13 PM EDT
Astronomical Twilight 5:05 AM EDT 9:45 PM EDT
Moon 5:15 AM EDT (7/6) 7:02 PM EDT (7/6)
Length of Visible Light 14h 32m
Length of Day
13h 41m
Waning Crescent, 2% of the Moon is Illuminated
Jul 6
Waning Crescent
Jul 8
New
Jul 15
First Quarter
Jul 22
Full
Jul 29
Last Quarter

Hourly Weather History & Observations

Time (EDT) Temp. Heat Index Dew Point Humidity Pressure Visibility Wind Dir Wind Speed Gust Speed Precip Events Conditions
12:53 AM 82.0 °F 88.6 °F 75.0 °F 79% 30.11 in 10.0 mi East 15.0 mph 19.6 mph 0.03 in   Mostly Cloudy
1:53 AM 82.0 °F 88.6 °F 75.0 °F 79% 30.10 in 10.0 mi ESE 15.0 mph 20.7 mph N/A   Mostly Cloudy
2:53 AM 81.0 °F 86.7 °F 75.0 °F 82% 30.09 in 10.0 mi East 11.5 mph - N/A   Mostly Cloudy
3:53 AM 81.0 °F 86.2 °F 73.9 °F 79% 30.04 in 10.0 mi East 15.0 mph - N/A   Overcast
4:53 AM 80.1 °F 85.1 °F 75.0 °F 85% 30.04 in 10.0 mi East 10.4 mph - N/A   Mostly Cloudy
5:53 AM 81.0 °F 85.8 °F 73.0 °F 77% 30.06 in 10.0 mi ESE 10.4 mph - 0.00 in   Mostly Cloudy
6:23 AM 80.6 °F 85.4 °F 73.4 °F 79% 30.06 in 10.0 mi ESE 9.2 mph - 0.00 in Rain Light Rain
6:38 AM 80.6 °F 85.4 °F 73.4 °F 79% 30.06 in 10.0 mi ESE 10.4 mph - 0.00 in   Mostly Cloudy
6:53 AM 81.0 °F 86.2 °F 73.9 °F 79% 30.06 in 10.0 mi ESE 10.4 mph - 0.00 in   Mostly Cloudy
7:53 AM 82.9 °F 88.8 °F 73.0 °F 72% 30.07 in 10.0 mi East 18.4 mph - N/A   Mostly Cloudy
8:53 AM 82.9 °F 88.0 °F 72.0 °F 69% 30.09 in 10.0 mi East 16.1 mph - N/A   Mostly Cloudy
9:53 AM 84.0 °F 89.6 °F 72.0 °F 67% 30.10 in 10.0 mi ESE 13.8 mph - N/A   Mostly Cloudy
10:53 AM 86.0 °F 92.2 °F 72.0 °F 63% 30.10 in 10.0 mi East 12.7 mph - N/A   Mostly Cloudy
11:53 AM 88.0 °F 94.7 °F 72.0 °F 59% 30.11 in 10.0 mi East 16.1 mph - N/A   Mostly Cloudy
12:53 PM 87.1 °F 93.6 °F 72.0 °F 61% 30.11 in 10.0 mi ESE 12.7 mph 20.7 mph N/A   Mostly Cloudy
1:53 PM 88.0 °F 94.7 °F 72.0 °F 59% 30.10 in 10.0 mi ESE 15.0 mph - N/A   Mostly Cloudy
2:53 PM 87.1 °F 92.8 °F 71.1 °F 59% 30.08 in 10.0 mi ESE 16.1 mph 23.0 mph N/A   Mostly Cloudy
3:53 PM 88.0 °F 92.9 °F 70.0 °F 55% 30.06 in 10.0 mi East 13.8 mph - N/A   Scattered Clouds
4:53 PM 87.1 °F 92.8 °F 71.1 °F 59% 30.04 in 10.0 mi ESE 16.1 mph - N/A   Scattered Clouds
5:53 PM 86.0 °F 92.2 °F 72.0 °F 63% 30.03 in 10.0 mi East 12.7 mph - N/A   Scattered Clouds
6:53 PM 84.9 °F 91.4 °F 73.0 °F 67% 30.04 in 10.0 mi ESE 15.0 mph - N/A   Mostly Cloudy
7:53 PM 82.9 °F 88.8 °F 73.0 °F 72% 30.06 in 10.0 mi East 11.5 mph - N/A   Scattered Clouds
8:51 PM 82.4 °F 88.2 °F 73.4 °F 74% 30.07 in 10.0 mi East 13.8 mph - N/A   Mostly Cloudy
8:53 PM 82.9 °F 88.8 °F 73.0 °F 72% 30.08 in 10.0 mi East 13.8 mph - N/A   Mostly Cloudy
9:51 PM 80.6 °F 85.4 °F 73.4 °F 79% 30.09 in 10.0 mi SSE 5.8 mph - 0.00 in   Scattered Clouds
9:53 PM 81.0 °F 85.8 °F 73.0 °F 77% 30.09 in 10.0 mi SSE 6.9 mph - 0.00 in   Scattered Clouds
10:53 PM 79.0 °F - 73.0 °F 82% 30.11 in 10.0 mi South 4.6 mph - N/A   Scattered Clouds
11:49 PM 78.8 °F - 73.4 °F 83% 30.10 in 10.0 mi Calm Calm - 0.02 in   Mostly Cloudy
11:53 PM 79.0 °F - 73.9 °F 84% 30.10 in 10.0 mi Calm Calm - 0.02 in   Mostly Cloudy